Time,TemperatureF,DewpointF,PressureIn,WindDirection,WindDirectionDegrees,WindSpeedMPH,WindSpeedGustMPH,Humidity,HourlyPrecipIn,Conditions,Clouds,dailyrainin,SoftwareType,DateUTC
2013-02-27 00:00:00,30.7,29.2,29.57,NE,45,5.1,12.5,94,0.00,,,0.00,WUHU21623XXSP,2013-02-27 06:00:00,
2013-02-27 00:05:00,30.6,29.0,29.57,NE,45,3.4,12.5,94,0.00,,,0.00,WUHU21623XXSP,2013-02-27 06:05:00,
2013-02-27 00:10:00,30.6,29.0,29.57,NE,45,2.7,11.0,94,0.00,,,0.00,WUHU21623XXSP,2013-02-27 06:10:00,
2013-02-27 00:15:00,30.6,29.0,29.57,NE,45,3.6,8.7,94,0.00,,,0.00,WUHU21623XXSP,2013-02-27 06:15:00,
2013-02-27 00:20:00,30.6,29.0,29.57,NE,45,3.6,13.0,94,0.00,,,0.00,WUHU21623XXSP,2013-02-27 06:20:00,
2013-02-27 00:25:00,30.4,28.9,29.57,ENE,67,2.7,13.0,94,0.00,,,0.00,WUHU21623XXSP,2013-02-27 06:25:00,
2013-02-27 00:30:00,30.4,28.9,29.57,NE,45,10.3,11.2,94,0.00,,,0.00,WUHU21623XXSP,2013-02-27 06:30:00,
2013-02-27 00:35:00,30.4,28.9,29.57,NE,45,6.3,11.2,94,0.00,,,0.00,WUHU21623XXSP,2013-02-27 06:35:00,
2013-02-27 00:40:00,30.4,28.9,29.57,NNE,22,3.8,10.5,94,0.00,,,0.00,WUHU21623XXSP,2013-02-27 06:40:00,
2013-02-27 00:45:00,30.4,28.9,29.57,North,0,3.6,11.2,94,0.00,,,0.00,WUHU21623XXSP,2013-02-27 06:45:00,
2013-02-27 00:50:00,30.2,28.7,29.57,NNE,22,3.1,11.2,94,0.00,,,0.00,WUHU21623XXSP,2013-02-27 06:50:00,
2013-02-27 00:55:00,30.2,28.7,29.57,North,0,8.5,10.3,94,0.00,,,0.00,WUHU21623XXSP,2013-02-27 06:55:00,
2013-02-27 01:00:00,30.2,28.7,29.57,NE,45,8.9,14.8,94,0.00,,,0.00,WUHU21623XXSP,2013-02-27 07:00:00,
2013-02-27 01:05:00,30.2,28.7,29.57,North,0,8.3,14.8,94,0.00,,,0.00,WUHU21623XXSP,2013-02-27 07:05:00,
2013-02-27 01:10:00,30.0,28.5,29.57,NE,45,3.6,12.5,94,0.00,,,0.00,WUHU21623XXSP,2013-02-27 07:10:00,
2013-02-27 01:15:00,30.0,28.5,29.57,NNE,22,3.6,12.5,94,0.00,,,0.00,WUHU21623XXSP,2013-02-27 07:15:00,
2013-02-27 01:20:00,30.0,28.5,29.57,NE,45,4.0,11.6,94,0.00,,,0.00,WUHU21623XXSP,2013-02-27 07:20:00,
2013-02-27 01:25:00,30.0,28.5,29.57,ENE,67,6.3,11.6,94,0.00,,,0.00,WUHU21623XXSP,2013-02-27 07:25:00,
2013-02-27 01:30:00,29.8,28.3,29.57,NNE,22,2.9,11.0,94,0.00,,,0.00,WUHU21623XXSP,2013-02-27 07:30:00,
2013-02-27 01:35:00,29.8,28.3,29.57,NNE,22,4.3,8.9,94,0.00,,,0.00,WUHU21623XXSP,2013-02-27 07:35:00,
2013-02-27 01:40:00,29.8,28.3,29.57,NE,45,5.1,8.9,94,0.00,,,0.00,WUHU21623XXSP,2013-02-27 07:40:00,
2013-02-27 01:45:00,29.7,28.1,29.57,NNE,22,4.9,7.8,94,0.00,,,0.00,WUHU21623XXSP,2013-02-27 07:45:00,
2013-02-27 01:50:00,29.5,28.0,29.57,NE,45,8.5,11.6,94,0.00,,,0.00,WUHU21623XXSP,2013-02-27 07:50:00,
2013-02-27 01:55:00,29.3,27.8,29.57,NNE,22,4.5,11.6,94,0.00,,,0.00,WUHU21623XXSP,2013-02-27 07:55:00,
2013-02-27 02:00:00,29.1,27.6,29.57,North,0,8.5,11.4,94,0.00,,,0.00,WUHU21623XXSP,2013-02-27 08:00:00,
2013-02-27 02:05:00,28.9,27.4,29.57,ENE,67,4.3,10.7,94,0.00,,,0.00,WUHU21623XXSP,2013-02-27 08:05:00,
2013-02-27 02:10:00,28.8,27.2,29.57,NNE,22,8.7,12.3,94,0.00,,,0.00,WUHU21623XXSP,2013-02-27 08:10:00,
2013-02-27 02:15:00,28.6,27.1,29.56,ENE,67,4.0,19.5,94,0.00,,,0.00,WUHU21623XXSP,2013-02-27 08:15:00,
2013-02-27 02:20:00,28.6,27.1,29.56,North,0,11.2,19.5,94,0.00,,,0.00,WUHU21623XXSP,2013-02-27 08:20:00,
2013-02-27 02:25:00,28.6,26.8,29.56,NNE,22,6.5,12.1,93,0.00,,,0.00,WUHU21623XXSP,2013-02-27 08:25:00,
2013-02-27 02:30:00,28.6,26.8,29.56,NNE,22,5.1,17.0,93,0.00,,,0.00,WUHU21623XXSP,2013-02-27 08:30:00,
2013-02-27 02:35:00,28.4,26.6,29.56,NNE,22,10.1,17.0,93,0.00,,,0.00,WUHU21623XXSP,2013-02-27 08:35:00,
2013-02-27 02:40:00,28.2,26.5,29.55,NNE,22,7.6,12.3,93,0.00,,,0.00,WUHU21623XXSP,2013-02-27 08:40:00,
2013-02-27 02:45:00,28.2,26.5,29.56,ENE,67,12.3,12.3,93,0.00,,,0.00,WUHU21623XXSP,2013-02-27 08:45:00,
2013-02-27 02:50:00,28.2,26.5,29.55,NNE,22,10.1,16.8,93,0.00,,,0.00,WUHU21623XXSP,2013-02-27 08:50:00,
2013-02-27 02:55:00,28.2,26.5,29.55,NE,45,5.4,16.8,93,0.00,,,0.00,WUHU21623XXSP,2013-02-27 08:55:00,
2013-02-27 03:00:00,28.2,26.5,29.55,NE,45,2.5,15.2,93,0.00,,,0.00,WUHU21623XXSP,2013-02-27 09:00:00,
2013-02-27 03:05:00,28.2,26.5,29.55,NNE,22,5.6,15.0,93,0.00,,,0.00,WUHU21623XXSP,2013-02-27 09:05:00,
2013-02-27 03:10:00,28.2,26.5,29.56,NNE,22,3.8,16.3,93,0.00,,,0.00,WUHU21623XXSP,2013-02-27 09:10:00,
2013-02-27 03:15:00,28.2,26.5,29.56,NNE,22,8.5,19.2,93,0.00,,,0.00,WUHU21623XXSP,2013-02-27 09:15:00,
2013-02-27 03:20:00,28.2,26.5,29.55,North,0,10.3,19.2,93,0.00,,,0.00,WUHU21623XXSP,2013-02-27 09:20:00,
2013-02-27 03:25:00,28.2,26.5,29.55,North,0,5.6,15.4,93,0.00,,,0.00,WUHU21623XXSP,2013-02-27 09:25:00,
2013-02-27 03:30:00,28.2,26.5,29.55,NNE,22,13.4,14.5,93,0.00,,,0.00,WUHU21623XXSP,2013-02-27 09:30:00,
2013-02-27 03:35:00,28.2,26.5,29.55,North,0,17.9,17.9,93,0.00,,,0.00,WUHU21623XXSP,2013-02-27 09:35:00,
2013-02-27 03:40:00,28.2,26.5,29.55,NE,45,4.5,17.9,93,0.00,,,0.00,WUHU21623XXSP,2013-02-27 09:40:00,
2013-02-27 03:45:00,28.2,26.5,29.55,North,0,3.1,13.9,93,0.00,,,0.00,WUHU21623XXSP,2013-02-27 09:45:00,
2013-02-27 03:50:00,28.2,26.2,29.55,North,0,6.5,15.7,92,0.00,,,0.00,WUHU21623XXSP,2013-02-27 09:50:00,
2013-02-27 03:55:00,28.2,26.2,29.55,NNE,22,11.2,15.7,92,0.00,,,0.00,WUHU21623XXSP,2013-02-27 09:55:00,
2013-02-27 04:00:00,28.2,26.2,29.55,NNE,22,11.2,15.9,92,0.00,,,0.00,WUHU21623XXSP,2013-02-27 10:00:00,
2013-02-27 04:05:00,28.2,26.2,29.55,NNW,337,0.9,17.0,92,0.00,,,0.00,WUHU21623XXSP,2013-02-27 10:05:00,
2013-02-27 04:10:00,28.2,26.2,29.55,NNE,22,10.3,17.0,92,0.00,,,0.00,WUHU21623XXSP,2013-02-27 10:10:00,
2013-02-27 04:15:00,28.2,26.2,29.55,NNE,22,13.6,14.1,92,0.00,,,0.00,WUHU21623XXSP,2013-02-27 10:15:00,
2013-02-27 04:20:00,28.2,26.2,29.55,ENE,67,4.5,18.1,92,0.00,,,0.00,WUHU21623XXSP,2013-02-27 10:20:00,
2013-02-27 04:25:00,28.2,26.2,29.55,NE,45,4.7,18.1,92,0.00,,,0.00,WUHU21623XXSP,2013-02-27 10:25:00,
2013-02-27 04:30:00,28.2,26.2,29.55,NNE,22,7.6,18.1,92,0.00,,,0.00,WUHU21623XXSP,2013-02-27 10:30:00,
2013-02-27 04:35:00,28.2,26.2,29.55,NNE,22,5.6,18.1,92,0.00,,,0.00,WUHU21623XXSP,2013-02-27 10:35:00,
2013-02-27 04:40:00,28.2,26.2,29.55,NNE,22,6.5,17.7,92,0.00,,,0.00,WUHU21623XXSP,2013-02-27 10:40:00,
2013-02-27 04:45:00,28.2,26.2,29.55,NNE,22,5.4,17.7,92,0.00,,,0.00,WUHU21623XXSP,2013-02-27 10:45:00,
2013-02-27 04:50:00,28.2,26.2,29.55,NE,45,11.2,15.7,92,0.00,,,0.00,WUHU21623XXSP,2013-02-27 10:50:00,
2013-02-27 04:55:00,28.2,26.2,29.55,NNW,337,8.3,15.7,92,0.00,,,0.00,WUHU21623XXSP,2013-02-27 10:55:00,
2013-02-27 05:00:00,28.2,26.2,29.55,NE,45,15.7,16.8,92,0.00,,,0.00,WUHU21623XXSP,2013-02-27 11:00:00,
2013-02-27 05:05:00,28.2,26.2,29.55,NNE,22,14.1,16.8,92,0.00,,,0.00,WUHU21623XXSP,2013-02-27 11:05:00,
2013-02-27 05:10:00,28.2,26.2,29.55,NNE,22,11.4,18.6,92,0.00,,,0.00,WUHU21623XXSP,2013-02-27 11:10:00,
2013-02-27 05:15:00,28.2,26.2,29.55,NNE,22,9.6,18.6,92,0.00,,,0.00,WUHU21623XXSP,2013-02-27 11:15:00,
2013-02-27 05:20:00,28.2,26.2,29.55,North,0,11.6,16.8,92,0.00,,,0.00,WUHU21623XXSP,2013-02-27 11:20:00,
2013-02-27 05:25:00,28.2,26.2,29.55,North,0,10.3,17.9,92,0.00,,,0.00,WUHU21623XXSP,2013-02-27 11:25:00,
2013-02-27 05:30:00,28.2,26.2,29.55,NE,45,5.1,17.9,92,0.00,,,0.00,WUHU21623XXSP,2013-02-27 11:30:00,
2013-02-27 05:35:00,28.2,26.2,29.55,ENE,67,13.4,16.3,92,0.00,,,0.00,WUHU21623XXSP,2013-02-27 11:35:00,
2013-02-27 05:40:00,28.2,26.2,29.55,NE,45,11.2,18.1,92,0.00,,,0.00,WUHU21623XXSP,2013-02-27 11:40:00,
2013-02-27 05:45:00,28.2,26.2,29.55,NE,45,8.7,18.1,92,0.00,,,0.00,WUHU21623XXSP,2013-02-27 11:45:00,
2013-02-27 05:50:00,28.2,26.2,29.55,NNE,22,6.9,17.2,92,0.00,,,0.00,WUHU21623XXSP,2013-02-27 11:50:00,
2013-02-27 05:55:00,28.2,26.2,29.55,NE,45,12.5,17.2,92,0.00,,,0.00,WUHU21623XXSP,2013-02-27 11:55:00,
2013-02-27 06:00:00,28.2,26.2,29.55,NNE,22,4.5,19.7,92,0.00,,,0.00,WUHU21623XXSP,2013-02-27 12:00:00,
2013-02-27 06:05:00,28.4,26.4,29.55,NE,45,3.6,19.7,92,0.00,,,0.00,WUHU21623XXSP,2013-02-27 12:05:00,
2013-02-27 06:10:00,28.4,26.4,29.55,NNE,22,7.8,13.0,92,0.00,,,0.00,WUHU21623XXSP,2013-02-27 12:10:00,
2013-02-27 06:15:00,28.2,26.2,29.55,NNW,337,4.5,14.3,92,0.00,,,0.00,WUHU21623XXSP,2013-02-27 12:15:00,
2013-02-27 06:20:00,28.4,26.4,29.55,East,90,4.7,14.3,92,0.00,,,0.00,WUHU21623XXSP,2013-02-27 12:20:00,
2013-02-27 06:25:00,28.4,26.4,29.55,NNE,22,8.5,15.0,92,0.00,,,0.00,WUHU21623XXSP,2013-02-27 12:25:00,
2013-02-27 06:30:00,28.4,26.4,29.55,North,0,15.4,15.4,92,0.00,,,0.00,WUHU21623XXSP,2013-02-27 12:30:00,
2013-02-27 06:35:00,28.6,26.6,29.55,NNE,22,5.6,15.4,92,0.00,,,0.00,WUHU21623XXSP,2013-02-27 12:35:00,
2013-02-27 06:40:00,28.6,26.6,29.55,North,0,9.2,11.4,92,0.00,,,0.00,WUHU21623XXSP,2013-02-27 12:40:00,
2013-02-27 06:45:00,28.8,26.7,29.55,NE,45,4.5,11.9,92,0.00,,,0.00,WUHU21623XXSP,2013-02-27 12:45:00,
2013-02-27 06:50:00,28.6,26.6,29.55,North,0,8.1,13.0,92,0.00,,,0.00,WUHU21623XXSP,2013-02-27 12:50:00,
2013-02-27 06:55:00,28.6,26.6,29.56,NE,45,4.5,13.0,92,0.00,,,0.00,WUHU21623XXSP,2013-02-27 12:55:00,
2013-02-27 07:00:00,28.8,26.7,29.56,NNE,22,8.5,10.7,92,0.00,,,0.00,WUHU21623XXSP,2013-02-27 13:00:00,
2013-02-27 07:05:00,28.8,26.7,29.56,NE,45,3.6,14.1,92,0.00,,,0.00,WUHU21623XXSP,2013-02-27 13:05:00,
2013-02-27 07:10:00,28.9,26.9,29.55,NNE,22,9.4,14.1,92,0.00,,,0.00,WUHU21623XXSP,2013-02-27 13:10:00,
2013-02-27 07:15:00,28.8,26.7,29.56,ENE,67,6.3,14.8,92,0.00,,,0.00,WUHU21623XXSP,2013-02-27 13:15:00,
2013-02-27 07:20:00,28.9,26.9,29.56,NNW,337,7.2,14.8,92,0.00,,,0.00,WUHU21623XXSP,2013-02-27 13:20:00,
2013-02-27 07:25:00,28.9,26.7,29.56,NNE,22,2.5,14.5,91,0.00,,,0.00,WUHU21623XXSP,2013-02-27 13:25:00,
2013-02-27 07:30:00,29.1,26.9,29.56,NNE,22,4.0,14.5,91,0.00,,,0.00,WUHU21623XXSP,2013-02-27 13:30:00,
2013-02-27 07:35:00,29.1,26.9,29.56,NNE,22,6.3,14.5,91,0.00,,,0.00,WUHU21623XXSP,2013-02-27 13:35:00,
2013-02-27 07:40:00,29.1,26.9,29.56,NNE,22,4.0,13.2,91,0.00,,,0.00,WUHU21623XXSP,2013-02-27 13:40:00,
2013-02-27 07:45:00,29.3,27.0,29.56,NE,45,4.5,13.2,91,0.00,,,0.00,WUHU21623XXSP,2013-02-27 13:45:00,
2013-02-27 07:50:00,29.5,27.2,29.56,NNE,22,6.0,12.1,91,0.00,,,0.00,WUHU21623XXSP,2013-02-27 13:50:00,
2013-02-27 07:55:00,29.5,27.2,29.57,NNE,22,8.5,11.4,91,0.00,,,0.00,WUHU21623XXSP,2013-02-27 13:55:00,
2013-02-27 08:00:00,29.5,27.2,29.57,NE,45,6.0,11.4,91,0.00,,,0.00,WUHU21623XXSP,2013-02-27 14:00:00,
2013-02-27 08:05:00,29.7,27.4,29.56,NNE,22,7.2,11.0,91,0.00,,,0.00,WUHU21623XXSP,2013-02-27 14:05:00,
2013-02-27 08:10:00,29.7,27.4,29.57,NNW,337,2.9,10.3,91,0.00,,,0.00,WUHU21623XXSP,2013-02-27 14:10:00,
2013-02-27 08:15:00,29.7,27.4,29.57,NNE,22,4.3,10.7,91,0.00,,,0.00,WUHU21623XXSP,2013-02-27 14:15:00,
2013-02-27 08:20:00,29.8,27.6,29.57,NE,45,3.1,11.9,91,0.00,,,0.00,WUHU21623XXSP,2013-02-27 14:20:00,
2013-02-27 08:25:00,29.8,27.6,29.57,NNE,22,10.3,11.9,91,0.00,,,0.00,WUHU21623XXSP,2013-02-27 14:25:00,
2013-02-27 08:30:00,30.0,27.8,29.56,North,0,9.6,11.2,91,0.00,,,0.00,WUHU21623XXSP,2013-02-27 14:30:00,
2013-02-27 08:35:00,30.0,27.8,29.57,ENE,67,6.9,11.2,91,0.00,,,0.00,WUHU21623XXSP,2013-02-27 14:35:00,
2013-02-27 08:40:00,30.2,27.9,29.57,NE,45,6.5,12.8,91,0.00,,,0.00,WUHU21623XXSP,2013-02-27 14:40:00,
2013-02-27 08:45:00,30.4,28.1,29.57,North,0,7.4,12.8,91,0.00,,,0.00,WUHU21623XXSP,2013-02-27 14:45:00,
2013-02-27 08:50:00,30.6,28.3,29.57,NE,45,4.0,10.3,91,0.00,,,0.00,WUHU21623XXSP,2013-02-27 14:50:00,
2013-02-27 08:55:00,30.6,28.3,29.57,North,0,5.8,10.7,91,0.00,,,0.00,WUHU21623XXSP,2013-02-27 14:55:00,
2013-02-27 09:00:00,30.6,28.3,29.57,NE,45,2.7,11.9,91,0.00,,,0.00,WUHU21623XXSP,2013-02-27 15:00:00,
2013-02-27 09:05:00,30.4,28.1,29.57,NNE,22,5.6,16.3,91,0.00,,,0.00,WUHU21623XXSP,2013-02-27 15:05:00,
2013-02-27 09:10:00,30.4,28.1,29.57,North,0,6.3,16.3,91,0.00,,,0.00,WUHU21623XXSP,2013-02-27 15:10:00,
2013-02-27 09:15:00,30.7,28.5,29.57,NNE,22,7.4,11.2,91,0.00,,,0.00,WUHU21623XXSP,2013-02-27 15:15:00,
2013-02-27 09:20:00,30.7,28.5,29.57,NNE,22,7.2,13.4,91,0.00,,,0.00,WUHU21623XXSP,2013-02-27 15:20:00,
2013-02-27 09:25:00,30.7,28.5,29.57,North,0,8.5,16.6,91,0.00,,,0.00,WUHU21623XXSP,2013-02-27 15:25:00,
2013-02-27 09:30:00,30.7,28.5,29.57,NNE,22,9.8,16.6,91,0.00,,,0.00,WUHU21623XXSP,2013-02-27 15:30:00,
2013-02-27 09:35:00,30.9,28.7,29.57,North,0,5.1,14.1,91,0.00,,,0.00,WUHU21623XXSP,2013-02-27 15:35:00,
2013-02-27 09:40:00,30.9,28.7,29.57,NE,45,7.8,10.3,91,0.00,,,0.00,WUHU21623XXSP,2013-02-27 15:40:00,
2013-02-27 09:45:00,30.9,28.4,29.57,NE,45,8.3,10.7,90,0.00,,,0.00,WUHU21623XXSP,2013-02-27 15:45:00,
2013-02-27 09:50:00,30.9,28.7,29.56,North,0,7.6,10.7,91,0.00,,,0.00,WUHU21623XXSP,2013-02-27 15:50:00,
2013-02-27 09:55:00,30.9,28.7,29.57,North,0,4.5,10.3,91,0.00,,,0.00,WUHU21623XXSP,2013-02-27 15:55:00,
2013-02-27 10:00:00,31.3,29.0,29.57,NNE,22,10.1,10.1,91,0.00,,,0.00,WUHU21623XXSP,2013-02-27 16:00:00,
2013-02-27 10:05:00,31.3,29.0,29.57,NE,45,10.3,15.0,91,0.00,,,0.00,WUHU21623XXSP,2013-02-27 16:05:00,
2013-02-27 10:10:00,31.5,29.2,29.57,NE,45,5.6,15.0,91,0.00,,,0.00,WUHU21623XXSP,2013-02-27 16:10:00,
2013-02-27 10:15:00,31.6,29.4,29.57,NNE,22,6.0,13.2,91,0.00,,,0.00,WUHU21623XXSP,2013-02-27 16:15:00,
2013-02-27 10:20:00,31.5,28.9,29.57,NNE,22,6.9,13.2,90,0.00,,,0.00,WUHU21623XXSP,2013-02-27 16:20:00,
2013-02-27 10:25:00,31.6,29.1,29.57,ENE,67,9.4,12.8,90,0.00,,,0.00,WUHU21623XXSP,2013-02-27 16:25:00,
2013-02-27 10:30:00,31.6,29.1,29.56,NNE,22,2.0,10.3,90,0.00,,,0.00,WUHU21623XXSP,2013-02-27 16:30:00,
2013-02-27 10:35:00,31.6,29.1,29.57,NNE,22,3.4,10.3,90,0.00,,,0.00,WUHU21623XXSP,2013-02-27 16:35:00,
2013-02-27 10:40:00,31.6,29.1,29.57,NNE,22,2.0,10.3,90,0.00,,,0.00,WUHU21623XXSP,2013-02-27 16:40:00,
2013-02-27 10:45:00,31.5,28.9,29.56,NE,45,4.5,11.9,90,0.00,,,0.00,WUHU21623XXSP,2013-02-27 16:45:00,
2013-02-27 10:50:00,31.6,29.1,29.56,NNW,337,8.1,11.9,90,0.00,,,0.00,WUHU21623XXSP,2013-02-27 16:50:00,
2013-02-27 10:55:00,31.3,29.0,29.57,NNE,22,8.9,12.5,91,0.00,,,0.00,WUHU21623XXSP,2013-02-27 16:55:00,
2013-02-27 11:00:00,31.5,29.2,29.57,NNE,22,6.9,12.5,91,0.00,,,0.00,WUHU21623XXSP,2013-02-27 17:00:00,
2013-02-27 11:05:00,31.6,29.4,29.57,NE,45,6.0,13.0,91,0.00,,,0.00,WUHU21623XXSP,2013-02-27 17:05:00,
2013-02-27 11:10:00,31.6,29.4,29.56,NNW,337,8.5,14.5,91,0.00,,,0.00,WUHU21623XXSP,2013-02-27 17:10:00,
2013-02-27 11:15:00,31.6,29.4,29.56,NNE,22,9.6,14.5,91,0.00,,,0.00,WUHU21623XXSP,2013-02-27 17:15:00,
2013-02-27 11:20:00,31.8,29.6,29.56,NE,45,6.7,13.0,91,0.00,,,0.00,WUHU21623XXSP,2013-02-27 17:20:00,
2013-02-27 11:25:00,31.8,29.6,29.57,NE,45,4.9,10.7,91,0.00,,,0.00,WUHU21623XXSP,2013-02-27 17:25:00,
2013-02-27 11:30:00,32.2,29.6,29.57,NE,45,9.4,11.9,90,0.00,,,0.00,WUHU21623XXSP,2013-02-27 17:30:00,
2013-02-27 11:35:00,32.4,29.8,29.57,NNW,337,5.1,14.1,90,0.00,,,0.00,WUHU21623XXSP,2013-02-27 17:35:00,
2013-02-27 11:40:00,32.5,30.0,29.57,North,0,5.4,14.1,90,0.00,,,0.00,WUHU21623XXSP,2013-02-27 17:40:00,
2013-02-27 11:45:00,32.5,29.7,29.57,NE,45,4.7,11.4,89,0.00,,,0.00,WUHU21623XXSP,2013-02-27 17:45:00,
2013-02-27 11:50:00,32.7,29.8,29.57,NNE,22,8.7,12.5,89,0.00,,,0.00,WUHU21623XXSP,2013-02-27 17:50:00,
2013-02-27 11:55:00,32.5,29.7,29.57,NNE,22,10.5,18.3,89,0.00,,,0.00,WUHU21623XXSP,2013-02-27 17:55:00,
2013-02-27 12:00:00,32.2,29.4,29.57,North,0,16.3,18.3,89,0.00,,,0.00,WUHU21623XXSP,2013-02-27 18:00:00,
2013-02-27 12:05:00,32.2,29.4,29.57,NE,45,8.7,17.7,89,0.00,,,0.00,WUHU21623XXSP,2013-02-27 18:05:00,
2013-02-27 12:10:00,32.2,29.4,29.57,NNE,22,15.4,17.2,89,0.00,,,0.00,WUHU21623XXSP,2013-02-27 18:10:00,
2013-02-27 12:15:00,32.2,29.4,29.57,NNW,337,5.1,17.2,89,0.00,,,0.00,WUHU21623XXSP,2013-02-27 18:15:00,
2013-02-27 12:20:00,32.2,29.4,29.57,NNE,22,9.4,11.6,89,0.00,,,0.00,WUHU21623XXSP,2013-02-27 18:20:00,
2013-02-27 12:25:00,32.4,29.5,29.57,NNE,22,5.8,11.6,89,0.00,,,0.00,WUHU21623XXSP,2013-02-27 18:25:00,
2013-02-27 12:30:00,32.2,29.4,29.57,NNE,22,6.9,13.9,89,0.00,,,0.00,WUHU21623XXSP,2013-02-27 18:30:00,
2013-02-27 12:35:00,32.4,29.5,29.57,North,0,7.6,13.9,89,0.00,,,0.00,WUHU21623XXSP,2013-02-27 18:35:00,
2013-02-27 12:40:00,32.4,29.5,29.56,NNE,22,2.9,13.4,89,0.00,,,0.00,WUHU21623XXSP,2013-02-27 18:40:00,
2013-02-27 12:45:00,32.5,29.7,29.56,NNE,22,7.6,14.1,89,0.00,,,0.00,WUHU21623XXSP,2013-02-27 18:45:00,
2013-02-27 12:50:00,32.4,29.8,29.57,NNE,22,5.1,14.1,90,0.00,,,0.00,WUHU21623XXSP,2013-02-27 18:50:00,
2013-02-27 12:55:00,32.5,30.0,29.57,North,0,9.4,10.5,90,0.00,,,0.00,WUHU21623XXSP,2013-02-27 18:55:00,
2013-02-27 13:00:00,32.7,30.1,29.57,North,0,5.6,11.4,90,0.00,,,0.00,WUHU21623XXSP,2013-02-27 19:00:00,
2013-02-27 13:05:00,32.7,29.8,29.57,NW,315,6.0,13.2,89,0.00,,,0.00,WUHU21623XXSP,2013-02-27 19:05:00,
2013-02-27 13:10:00,32.9,30.0,29.57,NE,45,11.6,13.2,89,0.00,,,0.00,WUHU21623XXSP,2013-02-27 19:10:00,
2013-02-27 13:15:00,33.1,30.2,29.57,North,0,7.2,15.9,89,0.00,,,0.00,WUHU21623XXSP,2013-02-27 19:15:00,
2013-02-27 13:20:00,33.1,29.9,29.57,NNW,337,8.3,15.9,88,0.00,,,0.00,WUHU21623XXSP,2013-02-27 19:20:00,
2013-02-27 13:25:00,33.3,30.0,29.57,NNE,22,3.8,14.1,88,0.00,,,0.00,WUHU21623XXSP,2013-02-27 19:25:00,
2013-02-27 13:30:00,33.1,29.9,29.57,NNE,22,8.9,18.3,88,0.00,,,0.00,WUHU21623XXSP,2013-02-27 19:30:00,
2013-02-27 13:35:00,32.9,29.7,29.57,NE,45,5.8,18.3,88,0.00,,,0.00,WUHU21623XXSP,2013-02-27 19:35:00,
2013-02-27 13:40:00,32.9,30.0,29.57,NE,45,8.3,17.7,89,0.00,,,0.00,WUHU21623XXSP,2013-02-27 19:40:00,
2013-02-27 13:45:00,32.7,29.8,29.57,NNW,337,4.5,17.7,89,0.00,,,0.00,WUHU21623XXSP,2013-02-27 19:45:00,
2013-02-27 13:50:00,32.4,29.5,29.57,NNE,22,9.6,17.9,89,0.00,,,0.00,WUHU21623XXSP,2013-02-27 19:50:00,
2013-02-27 13:55:00,32.4,29.8,29.57,NNE,22,6.3,17.9,90,0.00,,,0.00,WUHU21623XXSP,2013-02-27 19:55:00,
2013-02-27 14:01:00,32.5,30.0,29.57,NNE,22,8.9,16.3,90,0.00,,,0.00,WUHU21623XXSP,2013-02-27 20:01:00,
2013-02-27 14:06:00,32.4,29.8,29.57,North,0,6.9,15.7,90,0.00,,,0.00,WUHU21623XXSP,2013-02-27 20:06:00,
2013-02-27 14:11:00,32.4,29.5,29.58,NNE,22,5.4,15.7,89,0.00,,,0.00,WUHU21623XXSP,2013-02-27 20:11:00,
2013-02-27 14:15:00,32.4,29.5,29.58,NE,45,7.6,14.8,89,0.00,,,0.00,WUHU21623XXSP,2013-02-27 20:15:00,
2013-02-27 14:20:00,32.4,29.5,29.58,North,0,3.8,16.1,89,0.00,,,0.00,WUHU21623XXSP,2013-02-27 20:20:00,
2013-02-27 14:25:00,32.4,29.5,29.58,NNW,337,8.1,16.1,89,0.00,,,0.00,WUHU21623XXSP,2013-02-27 20:25:00,
2013-02-27 14:30:00,32.4,29.2,29.58,ENE,67,3.8,15.4,88,0.00,,,0.00,WUHU21623XXSP,2013-02-27 20:30:00,
2013-02-27 14:35:00,32.4,29.5,29.58,North,0,10.1,12.8,89,0.00,,,0.00,WUHU21623XXSP,2013-02-27 20:35:00,
2013-02-27 14:40:00,32.2,29.4,29.59,ENE,67,8.5,14.1,89,0.00,,,0.00,WUHU21623XXSP,2013-02-27 20:40:00,
2013-02-27 14:45:00,32.4,29.5,29.59,North,0,5.8,21.0,89,0.00,,,0.00,WUHU21623XXSP,2013-02-27 20:45:00,
2013-02-27 14:50:00,32.4,29.5,29.59,NE,45,9.4,21.0,89,0.00,,,0.00,WUHU21623XXSP,2013-02-27 20:50:00,
2013-02-27 14:55:00,32.2,29.5,29.59,NNE,22,4.9,14.5,89,0.00,,,0.00,WUHU21623XXSP,2013-02-27 20:55:00,
2013-02-27 15:00:00,32.2,29.4,29.59,NNE,22,8.5,15.7,89,0.00,,,0.00,WUHU21623XXSP,2013-02-27 21:00:00,
2013-02-27 15:05:00,32.5,29.5,29.59,NE,45,9.6,15.7,89,0.00,,,0.00,WUHU21623XXSP,2013-02-27 21:05:00,
2013-02-27 15:10:00,32.4,29.5,29.60,NE,45,19.9,19.9,89,0.00,,,0.00,WUHU21623XXSP,2013-02-27 21:10:00,
2013-02-27 15:16:00,32.2,29.4,29.60,North,0,8.3,19.9,89,0.00,,,0.00,WUHU21623XXSP,2013-02-27 21:16:00,
2013-02-27 15:21:00,32.2,29.4,29.60,North,0,3.8,17.4,89,0.00,,,0.00,WUHU21623XXSP,2013-02-27 21:21:00,
2013-02-27 15:26:00,32.2,29.4,29.60,NE,45,7.6,17.4,89,0.00,,,0.00,WUHU21623XXSP,2013-02-27 21:26:00,
2013-02-27 15:31:00,32.2,29.4,29.60,NE,45,8.9,14.1,89,0.00,,,0.00,WUHU21623XXSP,2013-02-27 21:31:00,
2013-02-27 15:36:00,32.2,29.6,29.60,NNE,22,7.8,16.6,90,0.00,,,0.00,WUHU21623XXSP,2013-02-27 21:36:00,
2013-02-27 15:41:00,32.2,29.6,29.61,NNE,22,6.3,16.6,90,0.00,,,0.00,WUHU21623XXSP,2013-02-27 21:41:00,
2013-02-27 15:46:00,32.0,29.6,29.61,NE,45,10.3,12.1,90,0.00,,,0.00,WUHU21623XXSP,2013-02-27 21:46:00,
2013-02-27 15:51:00,31.8,29.3,29.61,North,0,11.6,12.5,90,0.00,,,0.00,WUHU21623XXSP,2013-02-27 21:51:00,
2013-02-27 15:56:00,31.8,29.3,29.61,North,0,11.0,15.7,90,0.00,,,0.00,WUHU21623XXSP,2013-02-27 21:56:00,
2013-02-27 16:01:00,31.8,29.6,29.61,North,0,3.8,15.7,91,0.00,,,0.00,WUHU21623XXSP,2013-02-27 22:01:00,
2013-02-27 16:06:00,31.8,29.6,29.61,North,0,7.6,10.5,91,0.00,,,0.00,WUHU21623XXSP,2013-02-27 22:06:00,
2013-02-27 16:11:00,31.8,29.6,29.61,NE,45,5.8,10.7,91,0.00,,,0.00,WUHU21623XXSP,2013-02-27 22:11:00,
2013-02-27 16:16:00,31.8,29.6,29.61,North,0,10.5,11.6,91,0.00,,,0.00,WUHU21623XXSP,2013-02-27 22:16:00,
2013-02-27 16:21:00,31.8,29.3,29.62,North,0,6.3,17.7,90,0.00,,,0.00,WUHU21623XXSP,2013-02-27 22:21:00,
2013-02-27 16:26:00,31.8,29.3,29.62,NNE,22,4.3,17.7,90,0.00,,,0.00,WUHU21623XXSP,2013-02-27 22:26:00,
2013-02-27 16:31:00,31.8,29.3,29.62,NNW,337,4.7,12.3,90,0.00,,,0.00,WUHU21623XXSP,2013-02-27 22:31:00,
2013-02-27 16:36:00,31.8,29.3,29.62,East,90,5.1,12.3,90,0.00,,,0.00,WUHU21623XXSP,2013-02-27 22:36:00,
2013-02-27 16:41:00,31.8,29.6,29.62,NE,45,3.1,11.9,91,0.00,,,0.00,WUHU21623XXSP,2013-02-27 22:41:00,
2013-02-27 16:46:00,31.8,29.6,29.62,NNE,22,7.6,11.9,91,0.00,,,0.00,WUHU21623XXSP,2013-02-27 22:46:00,
2013-02-27 16:51:00,31.8,29.6,29.62,NNE,22,7.4,11.4,91,0.00,,,0.00,WUHU21623XXSP,2013-02-27 22:51:00,
2013-02-27 16:56:00,31.8,29.3,29.63,NE,45,8.5,11.4,90,0.00,,,0.00,WUHU21623XXSP,2013-02-27 22:56:00,
2013-02-27 17:01:00,31.8,29.3,29.63,NE,45,5.1,12.1,90,0.00,,,0.00,WUHU21623XXSP,2013-02-27 23:01:00,
2013-02-27 17:06:00,31.8,29.3,29.63,NNE,22,3.8,12.1,90,0.00,,,0.00,WUHU21623XXSP,2013-02-27 23:06:00,
2013-02-27 17:11:00,31.8,29.3,29.63,NNW,337,3.1,11.9,90,0.00,,,0.00,WUHU21623XXSP,2013-02-27 23:11:00,
2013-02-27 17:16:00,31.8,29.3,29.63,NNE,22,8.5,13.0,90,0.00,,,0.00,WUHU21623XXSP,2013-02-27 23:16:00,
2013-02-27 17:21:00,31.8,29.0,29.64,North,0,9.2,15.2,89,0.00,,,0.00,WUHU21623XXSP,2013-02-27 23:21:00,
2013-02-27 17:26:00,31.8,29.0,29.64,North,0,7.4,15.2,89,0.00,,,0.00,WUHU21623XXSP,2013-02-27 23:26:00,
2013-02-27 17:31:00,31.8,29.0,29.64,NNW,337,4.7,13.0,89,0.00,,,0.00,WUHU21623XXSP,2013-02-27 23:31:00,
2013-02-27 17:36:00,31.8,29.0,29.64,NE,45,3.8,11.6,89,0.00,,,0.00,WUHU21623XXSP,2013-02-27 23:36:00,
2013-02-27 17:41:00,31.8,29.0,29.64,NNE,22,11.9,11.9,89,0.00,,,0.00,WUHU21623XXSP,2013-02-27 23:41:00,
2013-02-27 17:46:00,31.8,29.0,29.64,NE,45,8.3,12.8,89,0.00,,,0.00,WUHU21623XXSP,2013-02-27 23:46:00,
2013-02-27 17:51:00,31.8,29.0,29.64,NNW,337,4.7,12.8,89,0.00,,,0.00,WUHU21623XXSP,2013-02-27 23:51:00,
2013-02-27 17:56:00,31.8,29.3,29.65,NNE,22,6.9,9.8,90,0.00,,,0.00,WUHU21623XXSP,2013-02-27 23:56:00,
2013-02-27 18:01:00,31.8,29.3,29.65,NNE,22,4.3,10.5,90,0.00,,,0.00,WUHU21623XXSP,2013-02-28 00:01:00,
2013-02-27 18:06:00,31.8,29.3,29.65,NNE,22,6.9,10.5,90,0.00,,,0.00,WUHU21623XXSP,2013-02-28 00:06:00,
2013-02-27 18:11:00,31.8,29.3,29.65,North,0,2.9,11.4,90,0.00,,,0.00,WUHU21623XXSP,2013-02-28 00:11:00,
2013-02-27 18:16:00,31.8,29.6,29.65,NNE,22,9.6,11.4,91,0.00,,,0.00,WUHU21623XXSP,2013-02-28 00:16:00,
2013-02-27 18:21:00,31.6,29.4,29.65,North,0,5.8,9.6,91,0.00,,,0.00,WUHU21623XXSP,2013-02-28 00:21:00,
2013-02-27 18:26:00,31.8,29.6,29.65,ENE,67,6.3,8.3,91,0.00,,,0.00,WUHU21623XXSP,2013-02-28 00:26:00,
2013-02-27 18:31:00,31.6,29.6,29.66,NNW,337,3.1,8.5,92,0.00,,,0.00,WUHU21623XXSP,2013-02-28 00:31:00,
2013-02-27 18:36:00,31.6,29.6,29.66,North,0,3.6,8.5,92,0.00,,,0.00,WUHU21623XXSP,2013-02-28 00:36:00,
2013-02-27 18:41:00,31.6,29.6,29.66,NNW,337,6.7,8.7,92,0.00,,,0.00,WUHU21623XXSP,2013-02-28 00:41:00,
2013-02-27 18:46:00,31.6,29.6,29.66,NNE,22,3.1,8.7,92,0.00,,,0.00,WUHU21623XXSP,2013-02-28 00:46:00,
2013-02-27 18:51:00,31.8,29.8,29.66,North,0,4.5,7.8,92,0.00,,,0.00,WUHU21623XXSP,2013-02-28 00:51:00,
2013-02-27 18:56:00,31.8,29.8,29.66,NNE,22,4.3,7.6,92,0.00,,,0.00,WUHU21623XXSP,2013-02-28 00:56:00,
2013-02-27 19:01:00,31.8,29.8,29.66,NE,45,4.3,10.1,92,0.00,,,0.00,WUHU21623XXSP,2013-02-28 01:01:00,
2013-02-27 19:06:00,31.8,29.8,29.66,NE,45,8.1,12.1,92,0.00,,,0.00,WUHU21623XXSP,2013-02-28 01:06:00,
2013-02-27 19:11:00,31.8,29.8,29.66,North,0,6.3,12.1,92,0.00,,,0.00,WUHU21623XXSP,2013-02-28 01:11:00,
2013-02-27 19:16:00,31.8,29.8,29.66,NNE,22,7.6,18.8,92,0.00,,,0.00,WUHU21623XXSP,2013-02-28 01:16:00,
2013-02-27 19:21:00,31.8,29.8,29.66,ENE,67,1.6,18.8,92,0.00,,,0.00,WUHU21623XXSP,2013-02-28 01:21:00,
2013-02-27 19:26:00,31.8,29.8,29.66,NE,45,7.6,10.1,92,0.00,,,0.00,WUHU21623XXSP,2013-02-28 01:26:00,
2013-02-27 19:31:00,31.8,29.8,29.66,NW,315,3.8,10.1,92,0.00,,,0.00,WUHU21623XXSP,2013-02-28 01:31:00,
2013-02-27 19:36:00,32.0,30.0,29.67,NE,45,0.0,7.8,92,0.00,,,0.00,WUHU21623XXSP,2013-02-28 01:36:00,
2013-02-27 19:41:00,31.8,29.8,29.67,North,0,3.4,9.8,92,0.00,,,0.00,WUHU21623XXSP,2013-02-28 01:41:00,
2013-02-27 19:46:00,32.0,30.0,29.67,NNE,22,7.2,10.5,92,0.00,,,0.00,WUHU21623XXSP,2013-02-28 01:46:00,
2013-02-27 19:51:00,32.0,30.0,29.67,NE,45,4.5,10.5,92,0.00,,,0.00,WUHU21623XXSP,2013-02-28 01:51:00,
2013-02-27 19:56:00,32.0,30.0,29.67,North,0,6.5,12.5,92,0.00,,,0.00,WUHU21623XXSP,2013-02-28 01:56:00,
2013-02-27 20:01:00,32.0,30.0,29.67,NNE,22,8.9,12.5,92,0.00,,,0.00,WUHU21623XXSP,2013-02-28 02:01:00,
2013-02-27 20:06:00,32.2,30.1,29.67,NNW,337,4.9,12.5,92,0.00,,,0.00,WUHU21623XXSP,2013-02-28 02:06:00,
2013-02-27 20:11:00,32.2,30.1,29.67,NNE,22,8.1,10.5,92,0.00,,,0.00,WUHU21623XXSP,2013-02-28 02:11:00,
2013-02-27 20:16:00,32.2,30.1,29.68,NNW,337,2.2,10.5,92,0.00,,,0.00,WUHU21623XXSP,2013-02-28 02:16:00,
2013-02-27 20:21:00,32.0,30.0,29.68,North,0,5.1,7.4,92,0.00,,,0.00,WUHU21623XXSP,2013-02-28 02:21:00,
2013-02-27 20:26:00,32.2,30.1,29.68,North,0,2.9,11.6,92,0.00,,,0.00,WUHU21623XXSP,2013-02-28 02:26:00,
2013-02-27 20:31:00,32.2,29.9,29.68,North,0,3.1,11.6,91,0.00,,,0.00,WUHU21623XXSP,2013-02-28 02:31:00,
2013-02-27 20:36:00,32.2,29.9,29.68,North,0,11.0,11.0,91,0.00,,,0.00,WUHU21623XXSP,2013-02-28 02:36:00,
2013-02-27 20:41:00,32.2,29.9,29.68,North,0,6.7,12.1,91,0.00,,,0.00,WUHU21623XXSP,2013-02-28 02:41:00,
2013-02-27 20:46:00,32.2,29.9,29.68,North,0,8.1,13.4,91,0.00,,,0.00,WUHU21623XXSP,2013-02-28 02:46:00,
2013-02-27 20:51:00,32.2,29.9,29.68,North,0,4.7,13.4,91,0.00,,,0.00,WUHU21623XXSP,2013-02-28 02:51:00,
2013-02-27 20:56:00,32.2,29.9,29.68,NE,45,3.1,14.8,91,0.00,,,0.00,WUHU21623XXSP,2013-02-28 02:56:00,
2013-02-27 21:01:00,32.2,29.9,29.68,ENE,67,5.6,14.8,91,0.00,,,0.00,WUHU21623XXSP,2013-02-28 03:01:00,
2013-02-27 21:06:00,32.2,29.9,29.68,NNE,22,11.0,11.9,91,0.00,,,0.00,WUHU21623XXSP,2013-02-28 03:06:00,
2013-02-27 21:11:00,32.2,29.9,29.68,NNW,337,10.3,12.1,91,0.00,,,0.00,WUHU21623XXSP,2013-02-28 03:11:00,
2013-02-27 21:16:00,32.2,29.9,29.69,North,0,2.9,12.1,91,0.00,,,0.00,WUHU21623XXSP,2013-02-28 03:16:00,
2013-02-27 21:21:00,32.2,29.9,29.69,NNE,22,3.8,11.2,91,0.00,,,0.00,WUHU21623XXSP,2013-02-28 03:21:00,
2013-02-27 21:26:00,32.0,29.7,29.68,NE,45,4.5,11.2,91,0.00,,,0.00,WUHU21623XXSP,2013-02-28 03:26:00,
2013-02-27 21:31:00,32.2,29.9,29.68,North,0,5.4,13.0,91,0.00,,,0.00,WUHU21623XXSP,2013-02-28 03:31:00,
2013-02-27 21:36:00,32.2,29.9,29.68,NW,315,8.3,13.0,91,0.00,,,0.00,WUHU21623XXSP,2013-02-28 03:36:00,
2013-02-27 21:41:00,32.2,29.9,29.69,NNE,22,6.5,10.7,91,0.00,,,0.00,WUHU21623XXSP,2013-02-28 03:41:00,
2013-02-27 21:46:00,32.2,29.9,29.69,NNE,22,7.6,12.1,91,0.00,,,0.00,WUHU21623XXSP,2013-02-28 03:46:00,
2013-02-27 21:51:00,32.2,29.9,29.69,NNE,22,8.5,13.0,91,0.00,,,0.00,WUHU21623XXSP,2013-02-28 03:51:00,
2013-02-27 21:56:00,32.2,29.9,29.69,North,0,6.7,17.2,91,0.00,,,0.00,WUHU21623XXSP,2013-02-28 03:56:00,
2013-02-27 22:01:00,32.2,29.9,29.69,NNE,22,6.7,17.2,91,0.00,,,0.00,WUHU21623XXSP,2013-02-28 04:01:00,
2013-02-27 22:06:00,32.2,29.9,29.69,NW,315,10.5,13.2,91,0.00,,,0.00,WUHU21623XXSP,2013-02-28 04:06:00,
2013-02-27 22:11:00,32.4,30.1,29.69,North,0,12.1,13.2,91,0.00,,,0.00,WUHU21623XXSP,2013-02-28 04:11:00,
2013-02-27 22:16:00,32.4,30.1,29.69,NNE,22,8.7,12.8,91,0.00,,,0.00,WUHU21623XXSP,2013-02-28 04:16:00,
2013-02-27 22:21:00,32.2,29.9,29.69,NNE,22,6.5,13.6,91,0.00,,,0.00,WUHU21623XXSP,2013-02-28 04:21:00,
2013-02-27 22:26:00,32.2,29.9,29.70,NNE,22,10.1,13.6,91,0.00,,,0.00,WUHU21623XXSP,2013-02-28 04:26:00,
2013-02-27 22:31:00,32.4,30.1,29.69,ENE,67,4.7,13.0,91,0.00,,,0.00,WUHU21623XXSP,2013-02-28 04:31:00,
2013-02-27 22:36:00,32.2,29.9,29.70,North,0,4.3,13.0,91,0.00,,,0.00,WUHU21623XXSP,2013-02-28 04:36:00,
2013-02-27 22:41:00,32.2,29.9,29.70,NE,45,7.6,13.0,91,0.00,,,0.00,WUHU21623XXSP,2013-02-28 04:41:00,
2013-02-27 22:46:00,32.4,30.1,29.70,NE,45,5.6,13.0,91,0.00,,,0.00,WUHU21623XXSP,2013-02-28 04:46:00,
2013-02-27 22:51:00,32.4,30.1,29.69,NNW,337,6.0,11.2,91,0.00,,,0.00,WUHU21623XXSP,2013-02-28 04:51:00,
2013-02-27 22:56:00,32.4,30.1,29.69,NNE,22,11.6,11.6,91,0.00,,,0.00,WUHU21623XXSP,2013-02-28 04:56:00,
2013-02-27 23:00:00,32.4,30.1,29.70,NNW,337,5.1,11.6,91,0.00,,,0.00,WUHU21623XXSP,2013-02-28 05:00:00,
2013-02-27 23:05:00,32.4,30.3,29.70,NNE,22,5.1,13.2,92,0.00,,,0.00,WUHU21623XXSP,2013-02-28 05:05:00,
2013-02-27 23:10:00,32.4,30.3,29.70,NNE,22,4.9,13.2,92,0.00,,,0.00,WUHU21623XXSP,2013-02-28 05:10:00,
2013-02-27 23:15:00,32.4,30.3,29.70,North,0,5.8,11.9,92,0.00,,,0.00,WUHU21623XXSP,2013-02-28 05:15:00,
2013-02-27 23:20:00,32.4,30.1,29.70,NNE,22,8.5,11.9,91,0.00,,,0.00,WUHU21623XXSP,2013-02-28 05:20:00,
2013-02-27 23:25:00,32.4,30.1,29.70,NNE,22,8.9,11.9,91,0.00,,,0.00,WUHU21623XXSP,2013-02-28 05:25:00,
2013-02-27 23:30:00,32.4,30.1,29.70,NNW,337,8.1,11.9,91,0.00,,,0.00,WUHU21623XXSP,2013-02-28 05:30:00,
2013-02-27 23:35:00,32.4,30.1,29.70,North,0,4.9,8.9,91,0.00,,,0.00,WUHU21623XXSP,2013-02-28 05:35:00,
2013-02-27 23:40:00,32.4,30.1,29.70,NNE,22,1.6,11.6,91,0.00,,,0.00,WUHU21623XXSP,2013-02-28 05:40:00,
2013-02-27 23:45:00,32.5,30.2,29.70,NNE,22,7.4,11.6,91,0.00,,,0.00,WUHU21623XXSP,2013-02-28 05:45:00,
2013-02-27 23:50:00,32.4,30.3,29.70,ENE,67,4.5,11.2,92,0.00,,,0.00,WUHU21623XXSP,2013-02-28 05:50:00,
2013-02-27 23:55:00,32.4,30.3,29.70,North,0,13.6,13.6,92,0.00,,,0.00,WUHU21623XXSP,2013-02-28 05:55:00,